Location: Goodfare
(55.2420°N, 119.7689°W)
Time: 03:57:34
(UTC+00:00)

ISS - Pass Details

Date: 01 December 2021
Orbit: 413 x 423 km, 51.6° (Epoch: 18 January)

Event Time Altitude Azimuth Distance (km) Brightness Sun altitude
Rises 02:06:04 0° 270° (W) 2,384 1.6 -20.3°
Reaches altitude 10° 02:08:15 10° 262° (W) 1,516 0.3 -20.6°
Maximum altitude 02:11:27 38° 193° (SSW) 664 -2.7 -21.1°
Enters shadow 02:11:40 37° 183° (S) 670 -2.7 -21.1°
